Regional Weather Roundup
Issued by NWS State College, PA

Home | Current Version | Previous Version | Text Only | Print | Product List | Glossary On
Versions: 1 2 3 4 5 6 7 8 9 10 11 12 13 14 15 16 17 18 19 20 21 22 23 24 25 26 27 28 29 30 31 32 33 34 35 36 37 38 39 40 41 42 43 44 45 46 47 48 49 50
000
ASUS41 KCTP 250210
RWRCTP

REGIONAL WEATHER ROUNDUP
NATIONAL WEATHER SERVICE STATE COLLEGE PA
900 PM EST WED FEB 24 2021

Note: "fair" indicates few or no clouds below 12,000 feet with no
significant weather and/or obstructions to visibility.

* = STATION THAT DOES NOT REPORT PRECIPITATION /E.G. RAIN...SNOW...ETC/
    THUNDER OR FOG.

PAZ002>004-007>009-013>016-020>023-029>032-250300-
WESTERN PENNSYLVANIA

CITY           SKY/WX    TMP DP  RH WIND       PRES   REMARKS
ERIE           CLOUDY    37  31  78 W9G16     29.94R
MEADVILLE      CLOUDY    38  30  73 W15G24    29.92R
FRANKLIN       CLOUDY    41  32  70 W14G24    29.89R
NEW CASTLE     CLOUDY    44  33  65 W13G20      N/A
BEAVER COUNTY  MOCLDY    44  34  67 W13G26    29.93R
BUTLER         MOCLDY    44  34  67 W12G18    29.90R
PITTSBURGH INT MOCLDY    43  36  76 NW14      29.91R
PITTSBURGH     MOCLDY    46  40  79 W14G24    29.89R
INDIANA*       PTCLDY    45  43  93 W10       29.90R
LATROBE        MOCLDY    46  46 100 SW17G23   29.90R
WASHINGTON CO* MOCLDY    45  40  82 W15G21    29.95R
$$

PAZ004>006-010>012-017>019-024>028-033>037-041-042-045-046-049>053-250300-
CENTRAL PENNSYLVANIA

CITY           SKY/WX    TMP DP  RH WIND       PRES   REMARKS
BRADFORD       CLOUDY    44  31  60 W14G22    29.79R
ST MARYS       CLOUDY    43  34  70 W18G31    29.82R
DUBOIS         PTCLDY    44  33  65 W17G29    29.81R
CLEARFIELD     PTCLDY    45  39  79 SW10      29.81R
JOHNSTOWN      CLOUDY    43  40  89 SW12      29.84S
SOMERSET       LGT RAIN  41  37  87 W14G20    29.88S
ALTOONA        LGT RAIN  47  41  80 W13       29.85R
STATE COLLEGE  CLOUDY    46  39  76 SW10      29.80F
REEDSVILLE     LGT RAIN  48  46  93 SW15G25   29.81R
WELLSBORO      FAIR      46  34  61 W16G25    29.71R
WILLIAMSPORT   CLOUDY    49  37  63 SW21G31   29.74F
SELINSGROVE    LGT RAIN  40  32  73 S3        29.80R
FT INDIANTOWN  LGT RAIN  40  33  75 CALM      29.81R
CAPITAL CITY   CLOUDY    47  33  58 CALM      29.81R
HARRISBURG     CLOUDY    45  32  60 VRB5      29.81R
YORK           CLOUDY    42  31  64 CALM      29.81R
$$

PAZ038>040-043-044-047-048-054-055-060>062-067>071-250300-
EASTERN PENNSYLVANIA

CITY           SKY/WX    TMP DP  RH WIND       PRES   REMARKS
TOWANDA        MOCLDY    48  34  57 W7        29.71R
SCRANTON       LGT RAIN  44  30  57 S3        29.75S
MOUNT POCONO   CLOUDY    42  27  55 SW13      29.75R
HAZLETON       CLOUDY    45  30  57 SW3       29.80R
LEHIGHTON      CLOUDY    37  32  81 CALM      29.80R
ALLENTOWN      CLOUDY    44  28  53 NW6       29.78S
QN CITY/ALNTWN CLOUDY    48  32  53 CALM      29.79S
QUAKERTOWN*    PTCLDY    46  32  57 S6        29.78F
PERKASIE*      PTCLDY    46  32  57 SW6       29.79F
DOYLESTOWN     CLEAR     46  32  58 S5        29.79F
READING        CLOUDY    48  33  56 W8        29.79R
LANCASTER      CLOUDY    45  32  60 W7        29.80R
COATESVILLE    PTCLDY    46  36  66 VRB8      29.81S
WEST CHESTER   PTCLDY    46  34  61 MISG      29.80F
POTTSTOWN      MOCLDY    49  33  54 SW7       29.80S
BLUE BELL      MOCLDY    46  34  63 S7        29.80S
NORTH PHILA    PTCLDY    49  38  65 SW9       29.82F
PHILADELPHIA   PTCLDY    47  38  71 S7        29.82F
$$



USA.gov is the U.S. government's official web portal to all federal, state and local government web resources and services.